BAW207 KORF-KMIA

Flight info

Callsign BAW207
Flight time 1h 43m
Altitude 40000
Route SKARP Y313 HOAGG
Aircraft B744/H-VGD/A

Departure

Time 2026-05-08 12:29
Airport Norfolk International Airport (KORF)

Arrival

Time 2026-05-08 14:13
Airport Miami International Airport (KMIA)
Time Latitude Longitude Altitude Speed Heading
2026-05-08 12:06 36.88693 -76.20067 39 ft 0 kts 135°
2026-05-08 12:22 36.88697 -76.20071 39 ft 2 kts 135°
2026-05-08 12:22 36.88708 -76.20085 39 ft 3 kts 133°
2026-05-08 12:22 36.88720 -76.20105 39 ft 3 kts 120°
2026-05-08 12:22 36.88729 -76.20128 39 ft 3 kts 107°
2026-05-08 12:23 36.88733 -76.20153 39 ft 3 kts 94°
2026-05-08 12:23 36.88733 -76.20179 39 ft 3 kts 81°
2026-05-08 12:23 36.88727 -76.20204 39 ft 3 kts 69°
2026-05-08 12:23 36.88718 -76.20227 39 ft 3 kts 58°
2026-05-08 12:24 36.88706 -76.20247 39 ft 3 kts 47°
2026-05-08 12:24 36.88704 -76.20250 39 ft 0 kts 45°
2026-05-08 12:26 36.88726 -76.20222 40 ft 9 kts 45°
2026-05-08 12:26 36.88788 -76.20154 40 ft 10 kts 22°
2026-05-08 12:27 36.88823 -76.20192 39 ft 8 kts 279°
2026-05-08 12:27 36.88831 -76.20259 39 ft 8 kts 279°
2026-05-08 12:27 36.88839 -76.20322 39 ft 7 kts 279°
2026-05-08 12:27 36.88847 -76.20382 39 ft 7 kts 279°
2026-05-08 12:28 36.88854 -76.20440 39 ft 7 kts 278°
2026-05-08 12:28 36.88861 -76.20498 40 ft 7 kts 285°
2026-05-08 12:28 36.88896 -76.20523 40 ft 7 kts 16°
2026-05-08 12:28 36.88935 -76.20492 40 ft 7 kts 37°
2026-05-08 12:29 36.88987 -76.20442 40 ft 24 kts 38°
2026-05-08 12:29 36.89343 -76.20098 40 ft 106 kts 38°
2026-05-08 12:29 36.90106 -76.19359 115 ft 165 kts 38°
2026-05-08 12:29 36.91016 -76.18361 751 ft 182 kts 46°
2026-05-08 12:30 36.91505 -76.16869 1567 ft 191 kts 81°
2026-05-08 12:30 36.91187 -76.15254 2407 ft 203 kts 113°
2026-05-08 12:30 36.90115 -76.13907 2789 ft 236 kts 145°
2026-05-08 12:30 36.88453 -76.13297 3120 ft 266 kts 175°
2026-05-08 12:31 36.86587 -76.13603 3962 ft 275 kts 195°
2026-05-08 12:31 36.84826 -76.14431 5157 ft 270 kts 204°
2026-05-08 12:31 36.83081 -76.15350 6210 ft 273 kts 205°
2026-05-08 12:31 36.81351 -76.16298 7347 ft 269 kts 206°
2026-05-08 12:32 36.79640 -76.17244 8393 ft 269 kts 207°
2026-05-08 12:32 36.77918 -76.18197 9244 ft 275 kts 207°
2026-05-08 12:32 36.76161 -76.19168 10213 ft 274 kts 209°
2026-05-08 12:32 36.74390 -76.20148 11020 ft 285 kts 210°
2026-05-08 12:33 36.72504 -76.21189 11418 ft 311 kts 210°
2026-05-08 12:33 36.70422 -76.22336 11654 ft 342 kts 210°
2026-05-08 12:33 36.68170 -76.23577 11860 ft 372 kts 210°
2026-05-08 12:33 36.65705 -76.24939 12546 ft 388 kts 210°
2026-05-08 12:34 36.63251 -76.26286 13587 ft 391 kts 211°
2026-05-08 12:34 36.60735 -76.27672 14602 ft 397 kts 211°
2026-05-08 12:34 36.58198 -76.29065 15688 ft 401 kts 211°
2026-05-08 12:34 36.55628 -76.30474 16686 ft 405 kts 212°
2026-05-08 12:35 36.53039 -76.31894 17615 ft 410 kts 212°
2026-05-08 12:35 36.50420 -76.33328 18520 ft 415 kts 212°
2026-05-08 12:35 36.47762 -76.34784 19414 ft 419 kts 212°
2026-05-08 12:35 36.45074 -76.36255 20280 ft 423 kts 212°
2026-05-08 12:36 36.42373 -76.37733 21140 ft 427 kts 212°
2026-05-08 12:36 36.39634 -76.39230 21952 ft 431 kts 213°
2026-05-08 12:36 36.36873 -76.40737 22723 ft 435 kts 213°
2026-05-08 12:36 36.34120 -76.42240 23446 ft 439 kts 213°
2026-05-08 12:37 36.31283 -76.43787 24221 ft 443 kts 213°
2026-05-08 12:37 36.28485 -76.45312 24967 ft 445 kts 213°
2026-05-08 12:37 36.25640 -76.46861 25685 ft 448 kts 214°
2026-05-08 12:37 36.22782 -76.48415 26365 ft 450 kts 214°
2026-05-08 12:38 36.19898 -76.49983 27009 ft 453 kts 214°
2026-05-08 12:38 36.17015 -76.51549 27622 ft 455 kts 215°
2026-05-08 12:38 36.14106 -76.53128 28197 ft 457 kts 215°
2026-05-08 12:38 36.11208 -76.54699 29073 ft 451 kts 216°
2026-05-08 12:39 36.08349 -76.56248 30113 ft 443 kts 217°
2026-05-08 12:39 36.05545 -76.57767 30961 ft 439 kts 217°
2026-05-08 12:39 36.02747 -76.59280 31513 ft 440 kts 217°
2026-05-08 12:39 35.99951 -76.60792 32104 ft 439 kts 218°
2026-05-08 12:40 35.97148 -76.62306 32575 ft 440 kts 218°
2026-05-08 12:40 35.94376 -76.63802 33226 ft 436 kts 218°
2026-05-08 12:40 35.91605 -76.65297 33787 ft 435 kts 218°
2026-05-08 12:40 35.88826 -76.66794 34283 ft 434 kts 218°
2026-05-08 12:41 35.86062 -76.68283 34726 ft 435 kts 218°
2026-05-08 12:41 35.83290 -76.69775 35140 ft 435 kts 218°
2026-05-08 12:41 35.80515 -76.71267 35575 ft 434 kts 218°
2026-05-08 12:41 35.77724 -76.72766 35911 ft 436 kts 218°
2026-05-08 12:42 35.74941 -76.74261 36263 ft 437 kts 218°
2026-05-08 12:42 35.72134 -76.75766 36641 ft 437 kts 218°
2026-05-08 12:42 35.69392 -76.77236 37055 ft 436 kts 218°
2026-05-08 12:42 35.66569 -76.78748 37358 ft 437 kts 219°
2026-05-08 12:43 35.63827 -76.80216 37716 ft 436 kts 219°
2026-05-08 12:43 35.61037 -76.81708 38080 ft 436 kts 219°
2026-05-08 12:43 35.58265 -76.83189 38429 ft 435 kts 219°
2026-05-08 12:43 35.55481 -76.84676 38671 ft 436 kts 219°
2026-05-08 12:44 35.52690 -76.86165 38992 ft 436 kts 219°
2026-05-08 12:44 35.49913 -76.87646 39280 ft 436 kts 219°
2026-05-08 12:44 35.47124 -76.89132 39618 ft 434 kts 218°
2026-05-08 12:44 35.44369 -76.90599 39945 ft 432 kts 218°
2026-05-08 12:45 35.41600 -76.92072 40085 ft 435 kts 218°
2026-05-08 12:45 35.38820 -76.93550 40105 ft 436 kts 218°
2026-05-08 12:45 35.33286 -76.96489 40110 ft 435 kts 218°
2026-05-08 12:46 35.27722 -76.99439 40110 ft 435 kts 218°
2026-05-08 12:46 35.22173 -77.02377 40110 ft 435 kts 218°
2026-05-08 12:47 35.16621 -77.05312 40110 ft 435 kts 218°
2026-05-08 12:47 35.11072 -77.08242 40110 ft 435 kts 218°
2026-05-08 12:48 35.05511 -77.11173 40110 ft 435 kts 218°
2026-05-08 12:48 34.99954 -77.14098 40109 ft 435 kts 218°
2026-05-08 12:49 34.94400 -77.17017 40108 ft 435 kts 218°
2026-05-08 12:49 34.88868 -77.19920 40096 ft 435 kts 218°
2026-05-08 12:50 34.83309 -77.22833 40091 ft 435 kts 217°
2026-05-08 12:50 34.77744 -77.25751 40091 ft 435 kts 218°
2026-05-08 12:51 34.69443 -77.30130 40088 ft 435 kts 217°
2026-05-08 12:52 34.63879 -77.33034 40087 ft 435 kts 217°
2026-05-08 12:52 34.55526 -77.37387 40087 ft 435 kts 217°
2026-05-08 12:53 34.49938 -77.40264 40081 ft 440 kts 214°
2026-05-08 12:53 34.46951 -77.41323 40089 ft 454 kts 208°
2026-05-08 12:53 34.43839 -77.42099 40087 ft 459 kts 205°
2026-05-08 12:54 34.37479 -77.43283 40089 ft 464 kts 203°
2026-05-08 12:54 34.31120 -77.44454 40089 ft 465 kts 204°
2026-05-08 12:55 34.24714 -77.45682 40095 ft 465 kts 204°
2026-05-08 12:55 34.18332 -77.46919 40095 ft 464 kts 204°
2026-05-08 12:56 34.11944 -77.48167 40095 ft 464 kts 204°
2026-05-08 12:56 34.05599 -77.49406 40095 ft 464 kts 204°
2026-05-08 12:57 33.99210 -77.50650 40095 ft 464 kts 204°
2026-05-08 12:57 33.92831 -77.51889 40094 ft 464 kts 204°
2026-05-08 12:58 33.86436 -77.53133 40096 ft 465 kts 204°
2026-05-08 12:58 33.80054 -77.54370 40093 ft 465 kts 204°
2026-05-08 12:59 33.74745 -77.55394 40092 ft 465 kts 204°
2026-05-08 12:59 33.67312 -77.56827 40093 ft 465 kts 204°
2026-05-08 13:00 33.62003 -77.57848 40092 ft 465 kts 204°
2026-05-08 13:00 33.55699 -77.59340 40093 ft 457 kts 209°
2026-05-08 13:01 33.49647 -77.61456 40092 ft 451 kts 211°
2026-05-08 13:01 33.43645 -77.63621 40092 ft 449 kts 211°
2026-05-08 13:02 33.37645 -77.65737 40093 ft 449 kts 211°
2026-05-08 13:02 33.31653 -77.67831 40093 ft 452 kts 211°
2026-05-08 13:03 33.25567 -77.69951 40091 ft 453 kts 210°
2026-05-08 13:03 33.19557 -77.72057 40091 ft 453 kts 211°
2026-05-08 13:04 33.13510 -77.74163 40091 ft 453 kts 210°
2026-05-08 13:04 33.07440 -77.76272 40092 ft 453 kts 210°
2026-05-08 13:05 33.01380 -77.78372 40092 ft 453 kts 210°
2026-05-08 13:05 32.95321 -77.80477 40092 ft 454 kts 210°
2026-05-08 13:06 32.89247 -77.82580 40092 ft 454 kts 210°
2026-05-08 13:06 32.83221 -77.84657 40092 ft 454 kts 210°
2026-05-08 13:07 32.77141 -77.86748 40092 ft 454 kts 210°
2026-05-08 13:07 32.71080 -77.88832 40092 ft 454 kts 210°
2026-05-08 13:08 32.64976 -77.90901 40090 ft 455 kts 209°
2026-05-08 13:08 32.58866 -77.92873 40092 ft 456 kts 209°
2026-05-08 13:09 32.52721 -77.94857 40091 ft 457 kts 209°
2026-05-08 13:09 32.46577 -77.96840 40093 ft 457 kts 209°
2026-05-08 13:10 32.40442 -77.98818 40093 ft 458 kts 209°
2026-05-08 13:10 32.34321 -78.00790 40089 ft 461 kts 208°
2026-05-08 13:11 32.28078 -78.02813 40096 ft 466 kts 208°
2026-05-08 13:11 32.21831 -78.04829 40097 ft 466 kts 208°
2026-05-08 13:12 32.15577 -78.06840 40102 ft 466 kts 208°
2026-05-08 13:12 32.09323 -78.08848 40102 ft 466 kts 208°
2026-05-08 13:13 32.03064 -78.10854 40104 ft 466 kts 208°
2026-05-08 13:13 31.96813 -78.12855 40104 ft 466 kts 208°
2026-05-08 13:14 31.90527 -78.14864 40104 ft 466 kts 208°
2026-05-08 13:14 31.84273 -78.16860 40103 ft 466 kts 208°
2026-05-08 13:15 31.78000 -78.18860 40103 ft 466 kts 208°
2026-05-08 13:15 31.71789 -78.20846 40103 ft 466 kts 207°
2026-05-08 13:16 31.65523 -78.22835 40102 ft 466 kts 207°
2026-05-08 13:16 31.59252 -78.24823 40094 ft 466 kts 207°
2026-05-08 13:17 31.52979 -78.26808 40092 ft 467 kts 207°
2026-05-08 13:17 31.46741 -78.28783 40092 ft 466 kts 207°
2026-05-08 13:18 31.40496 -78.30868 40092 ft 466 kts 208°
2026-05-08 13:18 31.34267 -78.32955 40091 ft 466 kts 208°
2026-05-08 13:19 31.28033 -78.35037 40091 ft 466 kts 208°
2026-05-08 13:19 31.21793 -78.37117 40091 ft 466 kts 208°
2026-05-08 13:20 31.15528 -78.39203 40093 ft 467 kts 207°
2026-05-08 13:20 31.09284 -78.41291 40091 ft 467 kts 207°
2026-05-08 13:21 31.03084 -78.43359 40090 ft 467 kts 207°
2026-05-08 13:21 30.96835 -78.45437 40091 ft 467 kts 207°
2026-05-08 13:22 30.90573 -78.47515 40090 ft 468 kts 207°
2026-05-08 13:22 30.84297 -78.49594 40089 ft 468 kts 207°
2026-05-08 13:23 30.78046 -78.51662 40089 ft 468 kts 207°
2026-05-08 13:23 30.71746 -78.53743 40089 ft 469 kts 206°
2026-05-08 13:24 30.65511 -78.55800 40088 ft 469 kts 206°
2026-05-08 13:24 30.59235 -78.57868 40088 ft 469 kts 206°
2026-05-08 13:25 30.52953 -78.59935 40088 ft 470 kts 206°
2026-05-08 13:25 30.46630 -78.62021 40084 ft 471 kts 206°
2026-05-08 13:26 30.40322 -78.64092 40086 ft 472 kts 206°
2026-05-08 13:26 30.33998 -78.66161 40085 ft 472 kts 206°
2026-05-08 13:27 30.27700 -78.68220 40080 ft 472 kts 206°
2026-05-08 13:27 30.21348 -78.70293 40071 ft 472 kts 206°
2026-05-08 13:28 30.15034 -78.72357 40057 ft 472 kts 206°
2026-05-08 13:28 30.08748 -78.74412 40056 ft 472 kts 206°
2026-05-08 13:29 30.02423 -78.76487 40055 ft 472 kts 206°
2026-05-08 13:29 29.96096 -78.78549 40055 ft 472 kts 205°
2026-05-08 13:30 29.89760 -78.80609 40054 ft 474 kts 205°
2026-05-08 13:30 29.83398 -78.82676 40053 ft 474 kts 205°
2026-05-08 13:31 29.77020 -78.84512 40057 ft 479 kts 199°
2026-05-08 13:31 29.70383 -78.85521 40052 ft 485 kts 195°
2026-05-08 13:32 29.63648 -78.86337 40052 ft 487 kts 195°
2026-05-08 13:32 29.56898 -78.87210 40051 ft 487 kts 195°
2026-05-08 13:33 29.50200 -78.88097 40050 ft 487 kts 195°
2026-05-08 13:33 29.43475 -78.88995 40044 ft 486 kts 195°
2026-05-08 13:34 29.36736 -78.89902 40043 ft 486 kts 195°
2026-05-08 13:34 29.30018 -78.90803 40044 ft 487 kts 195°
2026-05-08 13:35 29.23274 -78.91705 40046 ft 487 kts 195°
2026-05-08 13:35 29.16558 -78.92602 40047 ft 487 kts 195°
2026-05-08 13:36 29.09820 -78.93501 40046 ft 487 kts 195°
2026-05-08 13:36 29.03136 -78.94391 40046 ft 488 kts 195°
2026-05-08 13:37 28.96377 -78.95290 40046 ft 488 kts 195°
2026-05-08 13:37 28.89619 -78.96188 40046 ft 488 kts 195°
2026-05-08 13:38 28.82864 -78.97084 40045 ft 488 kts 195°
2026-05-08 13:38 28.76112 -78.97979 40045 ft 488 kts 195°
2026-05-08 13:39 28.69347 -78.98874 40045 ft 489 kts 195°
2026-05-08 13:39 28.62616 -78.99766 40045 ft 490 kts 195°
2026-05-08 13:40 28.55817 -79.00664 40040 ft 490 kts 195°
2026-05-08 13:40 28.49032 -79.01558 40039 ft 490 kts 194°
2026-05-08 13:41 28.42297 -79.02443 40040 ft 490 kts 194°
2026-05-08 13:41 28.35545 -79.03435 40030 ft 484 kts 200°
2026-05-08 13:42 28.29200 -79.05801 40055 ft 477 kts 210°
2026-05-08 13:42 28.23147 -79.08736 40055 ft 472 kts 212°
2026-05-08 13:43 28.17099 -79.11709 40056 ft 471 kts 211°
2026-05-08 13:43 28.11074 -79.14623 40057 ft 471 kts 211°
2026-05-08 13:44 28.05067 -79.17509 40059 ft 472 kts 211°
2026-05-08 13:44 27.99021 -79.20419 40065 ft 472 kts 211°
2026-05-08 13:45 27.92970 -79.23327 40065 ft 473 kts 210°
2026-05-08 13:45 27.87923 -79.25744 40066 ft 473 kts 210°
2026-05-08 13:46 27.81883 -79.28630 40061 ft 472 kts 210°
2026-05-08 13:46 27.75840 -79.31513 40062 ft 472 kts 209°
2026-05-08 13:47 27.69785 -79.34398 40062 ft 472 kts 209°
2026-05-08 13:47 27.63725 -79.37281 40065 ft 472 kts 209°
2026-05-08 13:48 27.57664 -79.40162 39708 ft 472 kts 209°
2026-05-08 13:48 27.54616 -79.41609 38897 ft 474 kts 209°
2026-05-08 13:48 27.51584 -79.43048 38099 ft 475 kts 209°
2026-05-08 13:49 27.48531 -79.44496 37326 ft 475 kts 209°
2026-05-08 13:49 27.45472 -79.45946 36537 ft 474 kts 209°
2026-05-08 13:49 27.42431 -79.47387 35724 ft 474 kts 209°
2026-05-08 13:49 27.39383 -79.48830 34957 ft 473 kts 209°
2026-05-08 13:50 27.36406 -79.50238 34297 ft 470 kts 209°
2026-05-08 13:50 27.33360 -79.51679 33649 ft 465 kts 209°
2026-05-08 13:50 27.30419 -79.53068 33031 ft 461 kts 209°
2026-05-08 13:50 27.27466 -79.54463 32416 ft 458 kts 209°
2026-05-08 13:51 27.24550 -79.55839 31813 ft 454 kts 209°
2026-05-08 13:51 27.21645 -79.57210 31220 ft 450 kts 209°
2026-05-08 13:51 27.18766 -79.58567 30631 ft 446 kts 209°
2026-05-08 13:51 27.15927 -79.59905 30047 ft 442 kts 209°
2026-05-08 13:52 27.13112 -79.61231 29460 ft 438 kts 209°
2026-05-08 13:52 27.10302 -79.62554 28866 ft 434 kts 208°
2026-05-08 13:52 27.07528 -79.63859 28273 ft 431 kts 208°
2026-05-08 13:52 27.04768 -79.65157 27684 ft 427 kts 209°
2026-05-08 13:53 27.02036 -79.66441 27096 ft 424 kts 208°
2026-05-08 13:53 26.99328 -79.67713 26508 ft 421 kts 208°
2026-05-08 13:53 26.96662 -79.68965 25926 ft 418 kts 208°
2026-05-08 13:53 26.93984 -79.70221 25341 ft 415 kts 208°
2026-05-08 13:54 26.91324 -79.71468 24760 ft 412 kts 208°
2026-05-08 13:54 26.88697 -79.72700 24183 ft 409 kts 208°
2026-05-08 13:54 26.86077 -79.73928 23608 ft 405 kts 208°
2026-05-08 13:54 26.83492 -79.75138 23032 ft 403 kts 208°
2026-05-08 13:55 26.80908 -79.76348 22455 ft 400 kts 208°
2026-05-08 13:55 26.78351 -79.77544 21881 ft 397 kts 208°
2026-05-08 13:55 26.73320 -79.79896 20756 ft 392 kts 208°
2026-05-08 13:56 26.70807 -79.81070 20194 ft 389 kts 208°
2026-05-08 13:56 26.68314 -79.82234 19635 ft 387 kts 208°
2026-05-08 13:56 26.65834 -79.83391 19077 ft 384 kts 208°
2026-05-08 13:56 26.63378 -79.84537 18528 ft 381 kts 208°
2026-05-08 13:57 26.60935 -79.85676 17977 ft 379 kts 208°
2026-05-08 13:57 26.58496 -79.86813 17396 ft 377 kts 207°
2026-05-08 13:57 26.56069 -79.87944 16786 ft 377 kts 207°
2026-05-08 13:57 26.53702 -79.89052 16254 ft 374 kts 207°
2026-05-08 13:58 26.51293 -79.90177 15712 ft 372 kts 207°
2026-05-08 13:58 26.48915 -79.91285 15174 ft 369 kts 206°
2026-05-08 13:58 26.46548 -79.92385 14640 ft 367 kts 206°
2026-05-08 13:58 26.44191 -79.93480 14105 ft 365 kts 206°
2026-05-08 13:59 26.41849 -79.94567 13576 ft 362 kts 206°
2026-05-08 13:59 26.39774 -79.95529 13106 ft 360 kts 205°
2026-05-08 13:59 26.37366 -79.96645 12563 ft 358 kts 205°
2026-05-08 13:59 26.35078 -79.97705 12045 ft 356 kts 205°
2026-05-08 14:00 26.32811 -79.98756 11773 ft 346 kts 205°
2026-05-08 14:00 26.30631 -79.99766 11623 ft 333 kts 205°
2026-05-08 14:00 26.28555 -80.00727 11478 ft 322 kts 203°
2026-05-08 14:00 26.26482 -80.01635 11320 ft 310 kts 198°
2026-05-08 14:01 26.24433 -80.02101 11211 ft 299 kts 188°
2026-05-08 14:01 26.22396 -80.02304 11055 ft 288 kts 182°
2026-05-08 14:01 26.20427 -80.02269 10851 ft 281 kts 178°
2026-05-08 14:01 26.18476 -80.02100 10538 ft 280 kts 174°
2026-05-08 14:02 26.16550 -80.01842 10229 ft 278 kts 174°
2026-05-08 14:02 26.14632 -80.01637 9922 ft 277 kts 175°
2026-05-08 14:02 26.12698 -80.01478 9613 ft 276 kts 176°
2026-05-08 14:02 26.10781 -80.01329 9308 ft 275 kts 176°
2026-05-08 14:03 26.08867 -80.01180 8994 ft 274 kts 176°
2026-05-08 14:03 26.06973 -80.01029 8690 ft 273 kts 176°
2026-05-08 14:03 26.05085 -80.00878 8402 ft 271 kts 176°
2026-05-08 14:03 26.03207 -80.00729 8114 ft 270 kts 176°
2026-05-08 14:04 26.01373 -80.00583 7943 ft 262 kts 176°
2026-05-08 14:04 25.99599 -80.00442 7866 ft 250 kts 176°
2026-05-08 14:04 25.97904 -80.00307 7784 ft 237 kts 176°
2026-05-08 14:04 25.96282 -80.00178 7502 ft 232 kts 176°
2026-05-08 14:05 25.94676 -80.00050 7139 ft 231 kts 176°
2026-05-08 14:05 25.93071 -79.99923 6750 ft 229 kts 176°
2026-05-08 14:05 25.91480 -79.99799 6338 ft 228 kts 178°
2026-05-08 14:05 25.89935 -79.99872 6112 ft 225 kts 187°
2026-05-08 14:06 25.88379 -80.00126 5868 ft 225 kts 190°
2026-05-08 14:06 25.86827 -80.00374 5469 ft 224 kts 189°
2026-05-08 14:06 25.85288 -80.00615 5069 ft 223 kts 189°
2026-05-08 14:06 25.83757 -80.00849 4704 ft 222 kts 189°
2026-05-08 14:07 25.82251 -80.01230 4542 ft 221 kts 204°
2026-05-08 14:07 25.81079 -80.02197 4445 ft 199 kts 230°
2026-05-08 14:07 25.80363 -80.03518 4240 ft 199 kts 248°
2026-05-08 14:07 25.79990 -80.04954 3996 ft 192 kts 259°
2026-05-08 14:08 25.79761 -80.06407 3743 ft 188 kts 263°
2026-05-08 14:08 25.79618 -80.07817 3517 ft 178 kts 267°
2026-05-08 14:08 25.79538 -80.09132 3287 ft 169 kts 269°
2026-05-08 14:08 25.79482 -80.10433 3051 ft 163 kts 270°
2026-05-08 14:09 25.79431 -80.11660 2837 ft 161 kts 270°
2026-05-08 14:09 25.79380 -80.12888 2625 ft 159 kts 270°
2026-05-08 14:09 25.79329 -80.14115 2412 ft 159 kts 270°
2026-05-08 14:09 25.79278 -80.15343 2202 ft 158 kts 270°
2026-05-08 14:10 25.79228 -80.16557 1996 ft 156 kts 269°
2026-05-08 14:10 25.79179 -80.17735 1835 ft 150 kts 269°
2026-05-08 14:10 25.79132 -80.18878 1654 ft 148 kts 269°
2026-05-08 14:10 25.79085 -80.20006 1416 ft 146 kts 269°
2026-05-08 14:11 25.79039 -80.21131 1215 ft 146 kts 269°
2026-05-08 14:11 25.78992 -80.22260 1018 ft 146 kts 269°
2026-05-08 14:11 25.78945 -80.23380 823 ft 146 kts 269°
2026-05-08 14:11 25.78898 -80.24514 629 ft 146 kts 268°
2026-05-08 14:12 25.78852 -80.25641 433 ft 146 kts 268°
2026-05-08 14:12 25.78805 -80.26762 239 ft 146 kts 267°
2026-05-08 14:12 25.78759 -80.27872 72 ft 146 kts 267°
2026-05-08 14:12 25.78714 -80.28959 22 ft 125 kts 267°
2026-05-08 14:13 25.78686 -80.29632 22 ft 54 kts 267°
2026-05-08 14:13 25.78676 -80.29893 22 ft 6 kts 267°
2026-05-08 14:13 25.78676 -80.29896 22 ft 0 kts 267°
2026-05-08 14:13 25.78675 -80.29915 22 ft 7 kts 267°
2026-05-08 14:14 25.78671 -80.30017 22 ft 19 kts 267°
2026-05-08 14:14 25.78665 -80.30163 22 ft 18 kts 267°
2026-05-08 14:14 25.78659 -80.30300 22 ft 17 kts 267°
2026-05-08 14:14 25.78690 -80.30354 22 ft 9 kts 13°
2026-05-08 14:15 25.78718 -80.30326 22 ft 8 kts 40°
2026-05-08 14:15 25.78736 -80.30314 22 ft 0 kts 22°
2026-05-08 14:16 25.78742 -80.30311 22 ft 4 kts 23°
2026-05-08 14:17 25.78801 -80.30281 22 ft 12 kts 24°
2026-05-08 14:17 25.78858 -80.30225 22 ft 11 kts 69°
2026-05-08 14:17 25.78866 -80.30145 22 ft 10 kts 86°
2026-05-08 14:17 25.78870 -80.30069 22 ft 10 kts 87°
2026-05-08 14:18 25.78872 -80.29997 22 ft 9 kts 88°
2026-05-08 14:18 25.78874 -80.29928 22 ft 9 kts 88°
2026-05-08 14:18 25.78875 -80.29863 22 ft 8 kts 88°
2026-05-08 14:18 25.78878 -80.29793 22 ft 12 kts 88°
2026-05-08 14:19 25.78882 -80.29654 22 ft 24 kts 87°
2026-05-08 14:19 25.78890 -80.29446 22 ft 25 kts 88°
2026-05-08 14:19 25.78895 -80.29284 22 ft 20 kts 88°
2026-05-08 14:19 25.78895 -80.29139 22 ft 15 kts 84°
2026-05-08 14:20 25.78909 -80.29032 22 ft 14 kts 78°
2026-05-08 14:20 25.78930 -80.28933 22 ft 13 kts 76°
2026-05-08 14:20 25.78950 -80.28836 22 ft 13 kts 80°
2026-05-08 14:20 25.78966 -80.28737 22 ft 12 kts 75°
2026-05-08 14:21 25.79031 -80.28695 22 ft 12 kts 359°
2026-05-08 14:21 25.79116 -80.28710 22 ft 13 kts 345°
2026-05-08 14:21 25.79199 -80.28691 22 ft 13 kts 24°
2026-05-08 14:21 25.79276 -80.28639 22 ft 13 kts 42°
2026-05-08 14:22 25.79357 -80.28601 22 ft 13 kts 359°
2026-05-08 14:22 25.79453 -80.28602 22 ft 14 kts 359°
2026-05-08 14:22 25.79556 -80.28604 22 ft 15 kts
2026-05-08 14:22 25.79606 -80.28638 22 ft 8 kts 287°
2026-05-08 14:23 25.79609 -80.28698 22 ft 8 kts 282°
2026-05-08 14:23 25.79652 -80.28731 22 ft 8 kts 346°
2026-05-08 14:23 25.79684 -80.28691 22 ft 8 kts 80°
2026-05-08 14:23 25.79688 -80.28630 22 ft 7 kts 89°
2026-05-08 14:24 25.79689 -80.28570 22 ft 8 kts 88°
2026-05-08 14:24 25.79691 -80.28504 22 ft 9 kts 89°
2026-05-08 14:24 25.79692 -80.28415 22 ft 14 kts 88°
2026-05-08 14:24 25.79679 -80.28307 22 ft 9 kts 110°
2026-05-08 14:25 25.79678 -80.28246 22 ft 5 kts 71°
2026-05-08 14:25 25.79697 -80.28214 22 ft 3 kts 49°
2026-05-08 14:25 25.79703 -80.28206 22 ft 1 kts 46°
2026-05-08 14:25 25.79708 -80.28201 22 ft 1 kts 48°
2026-05-08 14:26 25.79710 -80.28197 22 ft 0 kts 49°
2026-05-08 14:26 25.79711 -80.28196 22 ft 0 kts 49°
2026-05-08 14:26 25.79714 -80.28193 22 ft 1 kts 49°
2026-05-08 14:26 25.79717 -80.28190 22 ft 0 kts 49°
2026-05-08 14:27 25.79718 -80.28188 22 ft 0 kts 49°
2026-05-08 15:01 36.88694 -76.20068 26 ft 0 kts 135°